User: anonymous   Login
Location: Unspecified
(0.0000°N, 0.0000°E)
Time: 04:08:28
(UTC+00:00)
Language:

Vela 2A - Orbit

View from above orbital plane
View from above orbital plane
View from above satellite
View from above satellite

Ground track
Ground track

The orbit data is extracted from the following two-line orbital elements,

1   836U 64040A   17191.02635101 +.00000081 +00000-0 +00000-0 0  9997
2   836 075.7150 311.5204 5262090 219.0396 359.9748 00.23901519046289
Epoch (UTC): 10 July 2017 00:37:56
Eccentricity: 0.5262090
inclination: 75.7150°
perigee height: 45585 km
apogee height: 161011 km
right ascension of ascending node: 311.5204°
argument of perigee: 219.0396°
revolutions per day: 0.23901519
mean anomaly at epoch: 359.9748°
orbit number at epoch: 4628

The dashed part of the orbit path shows where the satellite is in the earth's shadow,  

DLR